When you browse on this site, cookies collect data to enhance your experience and personalize the content and advertising you see.
Visit our Privacy Policy to learn more. By continuing to use the site, you agree to this use of cookies and data.
  • In United Kingdom
  • List of Countries
  • For 7 days
  • Water Temperature
  • Weather Map
  • Weather Widgets
  • user-avatar
    Login

    Hourly Weather Abercanaid

    Today, 18 September, Wednesday

    Time Temperature Precipitation Wind Pressure Humidity
    00:00 +7°C° 0 mm 2 mps 746 mmHg 85%
    01:00 +7°C° 0 mm 2 mps 746 mmHg 86%
    02:00 +7°C° 0 mm 2 mps 746 mmHg 87%
    03:00 +7°C° 0 mm 2 mps 746 mmHg 88%
    04:00 +6°C° 0 mm 2 mps 746 mmHg 89%
    05:00 +7°C° 0 mm 1 mps 746 mmHg 90%
    06:00 +7°C° 0 mm 1 mps 747 mmHg 89%
    07:00 +9°C° 0 mm 1 mps 747 mmHg 84%
    08:00 +11°C° 0 mm 1 mps 747 mmHg 80%
    09:00 +13°C° 0 mm 1 mps 747 mmHg 75%
    10:00 +14°C° 0 mm 1 mps 747 mmHg 70%
    11:00 +15°C° 0 mm 1 mps 747 mmHg 66%
    12:00 +18°C° 0 mm 1 mps 747 mmHg 61%
    13:00 +18°C° 0 mm 1 mps 747 mmHg 61%
    14:00 +18°C° 0 mm 1 mps 747 mmHg 62%
    15:00 +18°C° 0 mm 1 mps 747 mmHg 62%
    16:00 +16°C° 0 mm 1 mps 747 mmHg 68%
    17:00 +15°C° 0 mm 1 mps 747 mmHg 74%
    18:00 +13°C° 0 mm 1 mps 747 mmHg 80%
    19:00 +13°C° 0 mm 1 mps 747 mmHg 82%
    20:00 +12°C° 0 mm 1 mps 747 mmHg 84%
    21:00 +11°C° 0 mm 1 mps 748 mmHg 86%
    22:00 +11°C° 0 mm 1 mps 748 mmHg 87%
    23:00 +10°C° 0 mm 1 mps 748 mmHg 87%

    Tomorrow, 19 September, Thursday

    Time Temperature Precipitation Wind Pressure Humidity
    00:00 +10°C° 0 mm 1 mps 748 mmHg 88%
    01:00 +10°C° 0 mm 1 mps 747 mmHg 87%
    02:00 +10°C° 0 mm 1 mps 747 mmHg 87%
    03:00 +9°C° 0 mm 1 mps 747 mmHg 86%
    04:00 +9°C° 0 mm 1 mps 747 mmHg 85%
    05:00 +9°C° 0 mm 1 mps 747 mmHg 85%
    06:00 +9°C° 0 mm 1 mps 747 mmHg 84%
    07:00 +11°C° 0 mm 1 mps 748 mmHg 80%
    08:00 +12°C° 0 mm 1 mps 748 mmHg 75%
    09:00 +14°C° 0 mm 1 mps 748 mmHg 71%
    10:00 +15°C° 0 mm 1 mps 748 mmHg 68%
    11:00 +16°C° 0 mm 1 mps 748 mmHg 64%
    12:00 +19°C° 0 mm 1 mps 748 mmHg 61%
    13:00 +19°C° 0 mm 1 mps 748 mmHg 62%
    14:00 +18°C° 0 mm 2 mps 748 mmHg 62%
    15:00 +18°C° 0 mm 2 mps 748 mmHg 63%
    16:00 +18°C° 0 mm 1 mps 747 mmHg 69%
    17:00 +16°C° 0 mm 1 mps 747 mmHg 75%
    18:00 +14°C° 0 mm 1 mps 746 mmHg 81%
    19:00 +14°C° 0 mm 1 mps 747 mmHg 83%
    20:00 +13°C° 0 mm 1 mps 747 mmHg 85%
    21:00 +12°C° 0 mm 1 mps 747 mmHg 87%
    22:00 +12°C° 0 mm 2 mps 746 mmHg 87%
    23:00 +10°C° 0 mm 2 mps 746 mmHg 88%

    Day after tomorrow, 20 September, Friday

    Time Temperature Precipitation Wind Pressure Humidity
    00:00 +10°C° 0 mm 2 mps 746 mmHg 89%
    01:00 +10°C° 0 mm 2 mps 746 mmHg 90%
    02:00 +9°C° 0 mm 2 mps 745 mmHg 90%
    03:00 +9°C° 0 mm 2 mps 745 mmHg 91%
    04:00 +8°C° 0 mm 2 mps 744 mmHg 92%
    05:00 +8°C° 0 mm 2 mps 744 mmHg 92%
    06:00 +8°C° 0 mm 3 mps 743 mmHg 93%
    07:00 +9°C° 0 mm 3 mps 743 mmHg 88%
    08:00 +11°C° 0 mm 4 mps 743 mmHg 84%
    09:00 +12°C° 0 mm 5 mps 743 mmHg 80%
    10:00 +13°C° 0 mm 6 mps 743 mmHg 73%
    11:00 +14°C° 0 mm 6 mps 742 mmHg 67%
    12:00 +15°C° 0 mm 7 mps 742 mmHg 61%
    13:00 +16°C° 0 mm 7 mps 741 mmHg 61%
    14:00 +16°C° 0 mm 7 mps 740 mmHg 60%
    15:00 +16°C° 0 mm 7 mps 740 mmHg 59%
    16:00 +15°C° 0 mm 7 mps 739 mmHg 61%
    17:00 +14°C° 0 mm 6 mps 738 mmHg 63%
    18:00 +13°C° 0 mm 6 mps 738 mmHg 65%
    19:00 +11°C° 0 mm 6 mps 737 mmHg 64%
    20:00 +11°C° 0 mm 6 mps 737 mmHg 63%
    21:00 +10°C° 0 mm 6 mps 737 mmHg 62%
    22:00 +9°C° 0 mm 6 mps 736 mmHg 65%
    23:00 +9°C° 0 mm 5 mps 736 mmHg 68%

    21 September, Saturday

    Time Temperature Precipitation Wind Pressure Humidity
    00:00 +8°C° 0 mm 5 mps 735 mmHg 71%
    01:00 +8°C° 0 mm 5 mps 734 mmHg 72%
    02:00 +8°C° 0 mm 4 mps 734 mmHg 74%
    03:00 +8°C° 0 mm 4 mps 734 mmHg 76%
    04:00 +8°C° 0 mm 4 mps 733 mmHg 77%
    05:00 +8°C° 0 mm 4 mps 732 mmHg 79%
    06:00 +7°C° 0 mm 4 mps 732 mmHg 80%
    07:00 +10°C° 0 mm 4 mps 732 mmHg 78%
    08:00 +12°C° 0 mm 5 mps 732 mmHg 76%
    09:00 +13°C° 0 mm 5 mps 732 mmHg 74%
    10:00 +15°C° 0 mm 5 mps 731 mmHg 73%
    11:00 +16°C° 0 mm 6 mps 731 mmHg 72%
    12:00 +19°C° 0 mm 6 mps 731 mmHg 72%
    13:00 +20°C° 0 mm 7 mps 730 mmHg 72%
    14:00 +20°C° 0 mm 7 mps 730 mmHg 73%
    15:00 +21°C° 0 mm 7 mps 729 mmHg 74%
    16:00 +20°C° 0.2 mm 7 mps 729 mmHg 79%
    17:00 +19°C° 0.2 mm 6 mps 729 mmHg 83%
    18:00 +17°C° 0.2 mm 5 mps 728 mmHg 88%
    19:00 +17°C° 0.2 mm 4 mps 728 mmHg 89%
    20:00 +15°C° 0.2 mm 4 mps 728 mmHg 90%
    21:00 +15°C° 0.2 mm 4 mps 727 mmHg 92%
    22:00 +15°C° 0.4 mm 4 mps 727 mmHg 93%
    23:00 +15°C° 0.4 mm 4 mps 727 mmHg 94%

    22 September, Sunday

    Time Temperature Precipitation Wind Pressure Humidity
    00:00 +14°C° 0.4 mm 3 mps 727 mmHg 95%
    01:00 +14°C° 0.3 mm 3 mps 727 mmHg 95%
    02:00 +14°C° 0.3 mm 3 mps 727 mmHg 94%
    03:00 +14°C° 0.3 mm 3 mps 727 mmHg 94%
    04:00 +13°C° 0 mm 3 mps 727 mmHg 95%
    05:00 +12°C° 0 mm 3 mps 727 mmHg 95%
    06:00 +12°C° 0 mm 3 mps 727 mmHg 96%
    07:00 +12°C° 0.1 mm 4 mps 728 mmHg 92%
    08:00 +13°C° 0.1 mm 5 mps 728 mmHg 88%
    09:00 +14°C° 0.1 mm 6 mps 728 mmHg 85%
    10:00 +15°C° 0 mm 6 mps 728 mmHg 80%
    11:00 +15°C° 0 mm 6 mps 728 mmHg 75%
    12:00 +16°C° 0 mm 6 mps 729 mmHg 70%
    13:00 +16°C° 0.2 mm 7 mps 729 mmHg 71%
    14:00 +15°C° 0.2 mm 7 mps 729 mmHg 73%
    15:00 +15°C° 0.2 mm 7 mps 729 mmHg 75%
    16:00 +14°C° 0 mm 7 mps 729 mmHg 77%
    17:00 +13°C° 0 mm 6 mps 729 mmHg 80%
    18:00 +11°C° 0 mm 6 mps 729 mmHg 83%
    19:00 +10°C° 0 mm 5 mps 730 mmHg 85%
    20:00 +10°C° 0 mm 5 mps 731 mmHg 87%
    21:00 +10°C° 0 mm 4 mps 731 mmHg 89%
    22:00 +10°C° 0 mm 4 mps 731 mmHg 90%
    23:00 +9°C° 0 mm 3 mps 731 mmHg 92%

    23 September, Monday

    Time Temperature Precipitation Wind Pressure Humidity
    00:00 +9°C° 0 mm 3 mps 732 mmHg 93%
    01:00 +9°C° 0 mm 3 mps 732 mmHg 93%
    02:00 +9°C° 0 mm 2 mps 732 mmHg 93%
    03:00 +9°C° 0 mm 2 mps 732 mmHg 94%
    04:00 +9°C° 0 mm 2 mps 731 mmHg 94%
    05:00 +9°C° 0 mm 2 mps 731 mmHg 94%
    06:00 +9°C° 0 mm 3 mps 731 mmHg 94%
    07:00 +10°C° 0 mm 3 mps 731 mmHg 93%
    08:00 +12°C° 0 mm 4 mps 731 mmHg 91%
    09:00 +13°C° 0 mm 5 mps 730 mmHg 89%
    10:00 +13°C° 0.3 mm 5 mps 730 mmHg 91%
    11:00 +13°C° 0.3 mm 5 mps 730 mmHg 93%
    12:00 +13°C° 0.3 mm 5 mps 729 mmHg 95%
    13:00 +13°C° 0.8 mm 5 mps 729 mmHg 96%
    14:00 +14°C° 0.8 mm 4 mps 729 mmHg 97%
    15:00 +14°C° 0.8 mm 3 mps 729 mmHg 98%
    16:00 +15°C° 0.2 mm 4 mps 729 mmHg 97%
    17:00 +15°C° 0.2 mm 5 mps 729 mmHg 97%
    18:00 +15°C° 0.2 mm 5 mps 730 mmHg 96%
    19:00 +15°C° 0.1 mm 5 mps 730 mmHg 97%
    20:00 +14°C° 0.1 mm 4 mps 730 mmHg 97%
    21:00 +14°C° 0.1 mm 4 mps 731 mmHg 97%
    22:00 +14°C° 0 mm 4 mps 731 mmHg 97%
    23:00 +14°C° 0 mm 4 mps 731 mmHg 97%
    Show more